Comanche, TX

4:04 PM CST on December 06, 2016 (GMT -0600)
Comanche

Weather History for KMKN - May, 2013

Change the Weather History Date:

Thursday, May 16, 2013

  Actual Average (KSEP) Record (KSEP)
Temperature  
Mean Temperature 82 °F -  
Max Temperature 90 °F 83 °F 94 °F (1978)
Min Temperature 73 °F 61 °F 42 °F (1942)
Cooling Degree Days 16    
Growing Degree Days 32 (Base 50)    
Moisture  
Dew Point 70 °F    
Average Humidity 67    
Maximum Humidity 100    
Minimum Humidity 48    
Precipitation  
Precipitation 0.00 in - - ()
Sea Level Pressure  
Sea Level Pressure 29.78 in    
Wind  
Wind Speed 10 mph (SSE)    
Max Wind Speed 17 mph    
Max Gust Speed 24 mph    
Visibility 10 miles    
Events Thunderstorm    
Averages and records for this station are not official NWS values.
T = Trace of Precipitation, MM = Missing Value Source: NWS Daily Summary

Daily Weather History Graph

Daily Weather History Graph

Search for Another Location

Airport or City:

Trip Planner

Search our weather history database for the weather conditions in past years. The results will help you decide how hot, cold, wet, or windy it might be!

Date:

Astronomy

May. 16, 2013 Rise Set
Actual Time 6:36 AM CDT 8:25 PM CDT
Civil Twilight 6:09 AM CDT 8:52 PM CDT
Nautical Twilight 5:37 AM CDT 9:25 PM CDT
Astronomical Twilight 5:02 AM CDT 9:59 PM CDT
Moon 12:04 PM CDT (5/16) 12:52 AM CDT (5/16)
Length of Visible Light 14h 43m
Length of Day
13h 49m
Waxing Crescent, 36% of the Moon is Illuminated
May 16
Waxing Crescent
May 17
First Quarter
May 24
Full
May 31
Last Quarter
Jun 8
New

Hourly Weather History & Observations

Time (CDT) Temp. Heat Index Dew Point Humidity Pressure Visibility Wind Dir Wind Speed Gust Speed Precip Events Conditions
12:15 AM - - - N/A% 29.79 in 10.0 mi South 11.5 mph 18.4 mph N/A Thunderstorm Clear
12:35 AM - - - N/A% 29.80 in 10.0 mi South 10.4 mph - N/A   Clear
12:55 AM - - - N/A% 29.80 in 10.0 mi SSE 6.9 mph - N/A   Clear
1:15 AM - - - N/A% 29.79 in 10.0 mi South 8.1 mph - N/A   Clear
1:35 AM - - - N/A% 29.78 in 10.0 mi SSW 12.7 mph 18.4 mph N/A   Clear
1:55 AM - - - N/A% 29.78 in 10.0 mi South 12.7 mph - N/A   Clear
2:15 AM - - - N/A% 29.77 in 10.0 mi SSW 17.3 mph 23.0 mph N/A   Clear
2:35 AM - - - N/A% 29.77 in 10.0 mi South 12.7 mph 17.3 mph N/A   Clear
2:55 AM - - - N/A% 29.77 in 10.0 mi South 10.4 mph 18.4 mph N/A   Clear
3:15 AM - - - N/A% 29.76 in 10.0 mi South 11.5 mph 19.6 mph N/A   Clear
3:35 AM - - - N/A% 29.75 in 10.0 mi South 11.5 mph - N/A   Clear
3:55 AM - - - N/A% 29.75 in 10.0 mi South 10.4 mph 17.3 mph N/A   Clear
4:15 AM - - - N/A% 29.76 in 10.0 mi South 9.2 mph 18.4 mph N/A   Clear
4:55 AM - - - N/A% 29.77 in 10.0 mi South 12.7 mph 18.4 mph N/A   Clear
5:15 AM - - - N/A% 29.78 in 10.0 mi SSE 9.2 mph - N/A   Clear
5:35 AM - - - N/A% 29.78 in 10.0 mi SSE 10.4 mph - N/A   Scattered Clouds
5:55 AM - - - N/A% 29.78 in 10.0 mi SSE 10.4 mph - N/A   Mostly Cloudy
6:15 AM - - - N/A% 29.79 in 10.0 mi SSE 9.2 mph - N/A   Overcast
6:35 AM - - - N/A% 29.79 in 10.0 mi SSE 8.1 mph - N/A   Overcast
6:55 AM - - - N/A% 29.80 in 10.0 mi ESE 6.9 mph - N/A   Overcast
7:15 AM - - - N/A% 29.80 in 10.0 mi SSE 5.8 mph - N/A   Overcast
7:35 AM - - - N/A% 29.80 in 10.0 mi SE 5.8 mph - N/A   Overcast
7:55 AM - - - N/A% 29.81 in 10.0 mi SSE 5.8 mph - N/A   Overcast
8:15 AM - - - N/A% 29.81 in 10.0 mi South 12.7 mph 16.1 mph N/A   Overcast
8:35 AM - - - N/A% 29.81 in 10.0 mi South 12.7 mph 18.4 mph N/A   Overcast
8:55 AM - - - N/A% 29.82 in 10.0 mi South 11.5 mph 18.4 mph N/A   Overcast
9:15 AM - - - N/A% 29.82 in 10.0 mi South 10.4 mph 17.3 mph N/A   Overcast
9:35 AM 73.6 °F - 73.6 °F 100% 29.82 in 10.0 mi South 12.7 mph 18.4 mph N/A   Overcast
9:55 AM 74.5 °F - 74.1 °F 99% 29.82 in 10.0 mi South 15.0 mph 19.6 mph N/A   Overcast
10:15 AM 75.6 °F - 68.0 °F 77% 29.81 in 10.0 mi South 12.7 mph 21.9 mph N/A   Overcast
10:35 AM 76.5 °F - 68.2 °F 75% 29.81 in 10.0 mi South 11.5 mph 17.3 mph N/A   Overcast
10:55 AM 77.0 °F - 67.8 °F 73% 29.81 in 10.0 mi SSW 11.5 mph 24.2 mph N/A   Overcast
11:15 AM 80.1 °F 82.8 °F 68.7 °F 68% 29.80 in 10.0 mi South 15.0 mph 18.4 mph N/A   Overcast
11:35 AM 79.0 °F - 67.8 °F 69% 29.80 in 10.0 mi SSW 10.4 mph 19.6 mph N/A   Overcast
11:55 AM 81.7 °F 84.9 °F 68.7 °F 65% 29.80 in 10.0 mi SSW 11.5 mph 17.3 mph N/A   Overcast
12:15 PM 81.7 °F 84.9 °F 68.7 °F 65% 29.80 in 10.0 mi SW 11.5 mph - N/A   Overcast
12:35 PM 83.3 °F 86.6 °F 68.7 °F 61% 29.80 in 10.0 mi SW 8.1 mph 16.1 mph N/A   Mostly Cloudy
12:55 PM 84.4 °F 88.2 °F 69.1 °F 60% 29.80 in 10.0 mi SW 4.6 mph 20.7 mph N/A   Scattered Clouds
1:15 PM 84.2 °F 87.9 °F 68.9 °F 60% 29.79 in 10.0 mi South 5.8 mph - N/A   Scattered Clouds
1:35 PM 85.5 °F 89.1 °F 68.7 °F 57% 29.78 in 10.0 mi SE 3.5 mph - N/A   Scattered Clouds
1:55 PM 87.4 °F 91.5 °F 68.9 °F 54% 29.78 in 10.0 mi Calm Calm - N/A   Mostly Cloudy
2:15 PM 87.1 °F 90.9 °F 68.7 °F 54% 29.77 in 10.0 mi SSW 4.6 mph - N/A   Mostly Cloudy
2:35 PM 88.0 °F 92.1 °F 68.9 °F 53% 29.77 in 10.0 mi South 6.9 mph - N/A   Scattered Clouds
2:55 PM 88.9 °F 93.0 °F 68.9 °F 51% 29.77 in 10.0 mi SE 6.9 mph - N/A   Scattered Clouds
3:15 PM 88.7 °F 92.6 °F 68.5 °F 51% 29.76 in 10.0 mi ESE 6.9 mph - N/A   Scattered Clouds
3:35 PM 89.1 °F 93.3 °F 68.5 °F 51% 29.76 in 10.0 mi ESE 6.9 mph - N/A   Mostly Cloudy
3:55 PM 89.6 °F 94.3 °F 69.4 °F 51% 29.75 in 10.0 mi East 5.8 mph - N/A   Scattered Clouds
4:15 PM 89.8 °F 94.6 °F 69.4 °F 51% 29.75 in 10.0 mi SE 9.2 mph - N/A   Scattered Clouds
4:35 PM 90.1 °F 94.4 °F 68.9 °F 49% 29.74 in 10.0 mi SE 8.1 mph - N/A   Clear
4:55 PM 89.8 °F 93.8 °F 68.5 °F 49% 29.74 in 10.0 mi ESE 10.4 mph - N/A   Clear
5:15 PM 89.8 °F 93.8 °F 68.4 °F 49% 29.73 in 10.0 mi ESE 8.1 mph - N/A   Clear
5:35 PM 89.4 °F 93.1 °F 68.0 °F 49% 29.73 in 10.0 mi ESE 4.6 mph - N/A   Clear
5:55 PM 89.8 °F 93.3 °F 67.8 °F 48% 29.73 in 10.0 mi SE 10.4 mph 16.1 mph N/A   Clear
6:15 PM 87.6 °F 93.5 °F 71.4 °F 58% 29.73 in 10.0 mi ESE 15.0 mph 20.7 mph N/A   Clear
6:35 PM 85.8 °F 91.5 °F 71.2 °F 62% 29.73 in 10.0 mi ESE 12.7 mph 18.4 mph N/A   Clear
6:55 PM 84.6 °F 90.0 °F 71.8 °F 65% 29.73 in 10.0 mi ESE 10.4 mph 19.6 mph N/A   Clear
7:15 PM 83.8 °F 88.9 °F 71.6 °F 66% 29.73 in 10.0 mi ESE 12.7 mph 20.7 mph N/A   Clear
7:35 PM 82.8 °F 87.7 °F 71.6 °F 69% 29.74 in 10.0 mi ESE 11.5 mph 17.3 mph N/A   Clear
7:55 PM 81.7 °F 86.0 °F 71.6 °F 71% 29.75 in 10.0 mi SE 11.5 mph - N/A   Clear
8:15 PM 80.8 °F 84.6 °F 70.9 °F 72% 29.75 in 10.0 mi SE 11.5 mph 16.1 mph N/A   Clear
8:35 PM 79.5 °F - 70.9 °F 75% 29.76 in 10.0 mi SE 9.2 mph - N/A   Clear
8:55 PM 78.8 °F - 70.5 °F 76% 29.77 in 10.0 mi SE 10.4 mph - N/A   Clear
9:15 PM 78.3 °F - 70.2 °F 76% 29.77 in 10.0 mi SE 9.2 mph - N/A   Clear
9:35 PM 77.4 °F - 69.8 °F 77% 29.77 in 10.0 mi SE 6.9 mph - N/A   Clear
9:55 PM 77.0 °F - 69.6 °F 78% 29.78 in 10.0 mi SE 8.1 mph - N/A   Clear
10:15 PM 76.5 °F - 69.4 °F 79% 29.79 in 10.0 mi SE 8.1 mph - N/A   Clear
10:35 PM 75.4 °F - 69.6 °F 82% 29.79 in 10.0 mi ESE 5.8 mph - N/A   Clear
10:55 PM 74.7 °F - 69.6 °F 84% 29.80 in 10.0 mi SE 5.8 mph - N/A   Clear
11:15 PM 74.5 °F - 69.8 °F 85% 29.80 in 10.0 mi SE 8.1 mph - N/A   Clear
11:35 PM 74.3 °F - 70.2 °F 87% 29.79 in 10.0 mi SE 8.1 mph - N/A   Clear
11:55 PM 73.9 °F - 70.3 °F 88% 29.79 in 10.0 mi SE 6.9 mph - N/A   Clear